COSMOS 1275 DEB, 18592

Orbit data source: Space-Track

COSMOS 1275 DEB, 18592 is space debris in LEO originally from a launch on Thu, 04 Jun 1981 UTC launched from the Plesetsk Missile And Space Complex (PKMTR). Debris objects in space refer to the collection of defunct objects orbiting the Earth. Examples of debris include non-operational satellites, rocket bodies, and fragments generated from explosions, collisions, or faulty payload assembly.

Loading next visibility...
Identifier
18592, 1981-053LU
Orbit
LEO
Country
Flag of CISCIS
Related business
Manufacturer
Unknown
Mission
Spacecraft
Bus & Motor
Unknown
Mass
Unknown
Launch date (UTC)
1981-06-04 (44 years ago)
Launch vehicle
Unknown
Launch site
Plesetsk Missile And Space Complex (PKMTR)
Object type
Payload
Rocket body
Debris
Shape & HBR
Unknown shape, 0.1 m
Radar Cross Section
Small (<0.1 m²)

Expand to show TLE details & history
Last TLE update: 2 days ago

TLE from 2 days ago
0 COSMOS 1275 DEB
1 18592U 81053LU  25305.84495391  .00005496  00000-0  20450-2 0  9997
2 18592  82.9344 258.7711 0011352 112.2118 277.6671 14.31900332671158
Epoch: 2025-11-01T20:16Z
TLE epoch observation values (Epoch: 2025-11-01T20:16:44.017Z)
Latitude
29.5509°
Longitude
-82.7734°
Altitude
788.047 km
Speed
7.463 km/s
True Right ascension
17h 31m 07s
True Declination
29° 24' 15"
Sunlit
Object was in daylight at epoch
Visualization orbit readout
Latitude
Unknown
Longitude
Unknown
Altitude
Unknown
Speed
Unknown
Apparent Right ascension
Unknown
Apparent Declination
Unknown
Sunlit
N/A
Visualization observer readout
Local Sidereal Time
23:59:12
Azimuth
Unknown
Elevation
Unknown
Doppler factor
Unknown
Orbital elements
Apogee altitude
790.585 km
Perigee altitude
774.328 km
Semi-major axis
7,160.594 km
Eccentricity
0.00114
Inclination
82.9344°
RAAN
258.7711°
Arg. of periapsis
112.2118°
True anomaly
277.53815°
Mean anomaly
277.6671°
Eccentric anomaly
277.60263°
Mean motion
3.58195 °/min
Orbital period
100.5 mins
BSTAR
0.002045
Loading maneuver chart data...
Computing Atmospheric mass density...

Documentation

Showing up to 5 results
|